Home > Weather > Yavatmal > Past weeks

Flag for India Weather for the Past 2 Weeks in Yavatmal, Maharashtra, India

Now
95 °F

Broken clouds.


Feels Like: 93 °F
Forecast: 83 / 105 °F
Wind: 10 mph from South

Location: Nagpur Sonegaon

Current Time: May 2, 2016 at 6:27:33 PM

Latest Report: May 2, 2016 at 6:00 PM


Visibility: 3 mi

Pressure: 29.74 "Hg

Humidity: 25%

Dew Point: 54 °F

Location of YavatmalLocation

Historic Weather in Yavatmal — Graph

°F

Yavatmal Temperature Yesterday

Maximum temperature yesterday: 111 °F (at 1:30 PM)
Minimum temperature yesterday: 84 °F (at 5:00 AM)
Average temperature yesterday: 98 °F

High & Low Weather Summary for the Past Weeks

 TemperatureHumidityPressure
High113 °F (Apr 21, 3:00 PM)45% (Apr 28, 4:00 AM)29.89 "Hg (Apr 28, 4:00 AM)
Low77 °F (Apr 18, 5:00 AM)9% (May 1, 2:00 PM)29.59 "Hg (Apr 23, 4:30 PM)
Average98 °F21%29.74 "Hg
* Reported Apr 17 5:00 PM — May 2 5:00 PM, Yavatmal, Weather by CustomWeather, © 2016

Note: Actual official high and low records may vary slightly from our data, if they occured in-between our weather recording intervals... More about our weather records

Advertising

Yavatmal Weather History for the Previous 24 Hours

Scroll right to see more
 ConditionsComfort  
Time TempWeatherWind HumidityBarometerVisibility
5:00 PM
Mon, May 2
100 °FThunderstorms. Broken clouds.12 mph20%29.68 "Hg2 mi
4:30 PM97 °FBroken clouds.23 mph22%29.68 "Hg3 mi
4:00 PM95 °FLight rain. Broken clouds.29 mph26%29.71 "Hg3 mi
3:30 PM99 °FLight rain. Broken clouds.14 mph19%29.71 "Hg3 mi
3:00 PM108 °FScattered clouds.8 mph14%29.68 "Hg4 mi
2:30 PM109 °FScattered clouds.7 mph13%29.71 "Hg4 mi
2:00 PM109 °FScattered clouds.12 mph15%29.71 "Hg4 mi
1:30 PM108 °FBroken clouds.8 mph13%29.71 "Hg4 mi
12:30 PM108 °FScattered clouds.6 mph14%29.74 "Hg4 mi
12:00 PM108 °FHaze.7 mph14%29.77 "Hg4 mi
11:30 AM108 °FHaze.7 mph14%29.77 "Hg4 mi
10:30 AM104 °FHaze.5 mph15%29.80 "Hg3 mi
10:00 AM102 °FHaze.5 mph17%29.80 "Hg3 mi
9:30 AM100 °FHaze.6 mph18%29.80 "Hg3 mi
9:00 AM99 °FHaze.5 mph19%29.80 "Hg3 mi
8:30 AM97 °FHaze.6 mph19%29.80 "Hg3 mi
7:30 AM91 °FHaze.6 mph23%29.77 "Hg3 mi
7:00 AM90 °FHaze.3 mph24%29.74 "Hg2 mi
6:30 AM90 °FHaze.5 mph24%29.74 "Hg2 mi
6:00 AM86 °FPassing clouds.5 mph27%29.74 "Hg2 mi
5:30 AM88 °FPassing clouds.5 mph24%29.74 "Hg2 mi
5:00 AM88 °FPassing clouds.5 mph25%29.71 "Hg2 mi
4:30 AM88 °FPassing clouds.5 mph24%29.71 "Hg2 mi
3:30 AM88 °FPassing clouds.5 mph25%29.71 "Hg2 mi
3:00 AM88 °FPassing clouds.2 mph25%29.71 "Hg2 mi
2:00 AM88 °FPassing clouds.No wind25%29.71 "Hg2 mi
1:30 AM88 °FPassing clouds.No wind25%29.71 "Hg2 mi
12:30 AM88 °FPassing clouds.3 mph25%29.71 "Hg2 mi
12:00 AM90 °FPassing clouds.No wind22%29.71 "Hg2 mi
11:30 PM
Sun, May 1
88 °FPassing clouds.5 mph24%29.71 "Hg2 mi
11:00 PM90 °FPassing clouds.No wind22%29.71 "Hg2 mi
10:30 PM91 °FPassing clouds.No wind21%29.74 "Hg2 mi
10:00 PM95 °FPassing clouds.2 mph19%29.71 "Hg2 mi
9:30 PM95 °FPassing clouds.No wind19%29.71 "Hg2 mi
8:30 PM97 °FPassing clouds.5 mph17%29.71 "Hg2 mi
8:00 PM99 °FPassing clouds.5 mph16%29.68 "Hg2 mi
7:30 PM99 °FPassing clouds.5 mph16%29.71 "Hg2 mi
7:00 PM102 °FScattered clouds.3 mph15%29.68 "Hg2 mi
6:30 PM104 °FScattered clouds.5 mph13%29.65 "Hg4 mi
6:00 PM108 °FScattered clouds.8 mph12%29.74 "Hg4 mi
Weather by CustomWeather, © 2016

See weather overviewHow to use our weather pages